Dewpoint
33 31 27 25 26 23 21 21 19 18 21 21 29 27 30 33 35 35 34 32 33 35 38 40 46 54 56 59 60 60 59 58 58 58 57 55 53 50 49 48 48 49 49 47
30 33 33 33 32 26 22 20 23 24 20 18 16 19 25 29 35 36 33 34 33 39 44 47 49 56 58 58 60 59 58 58 58 60 57 54 51 49 48 48 49 49 47 46
30 33 33 32 32 31 30 28 26 26 28 22 21 19 23 25 29 37 37 36 37 43 47 49 51 55 58 60 59 59 58 58 58 60 55 53 50 49 48 48 48 47 46 44
33 33 31 31 31 31 29 29 30 26 24 21 25 21 27 28 26 29 37 40 42 43 48 49 52 58 59 59 60 60 59 58 58 58 53 50 46 45 47 48 48 46 45 43
29 31 33 31 30 30 29 32 28 30 29 25 26 24 28 27 28 30 31 38 42 44 48 50 54 58 59 59 59 59 58 58 58 51 50 48 47 47 48 49 47 46 45 43
30 33 33 33 33 29 30 30 32 34 32 25 26 26 27 26 26 33 35 39 41 44 48 52 56 57 57 58 58 58 58 56 49 49 49 48 47 48 47 47 47 47 46 44
30 27 31 36 31 32 31 29 27 27 27 26 27 29 30 32 31 31 31 36 43 49 52 55 56 56 56 57 58 58 53 48 48 49 50 49 46 45 44 43 42 39 39 41
26 25 31 34 29 30 32 32 28 23 27 27 29 27 30 32 33 36 38 40 46 49 49 53 55 55 56 53 50 49 47 48 49 49 49 47 44 43 41 40 41 41 41 41
28 31 36 33 33 30 34 32 34 29 33 27 24 24 32 32 33 39 40 43 46 47 45 47 47 49 48 48 48 47 47 48 50 50 47 44 40 39 39 40 41 42 38 34
36 32 37 37 35 32 30 30 28 28 17 17 20 21 29 31 33 35 39 44 45 45 44 44 44 46 47 48 49 49 48 49 49 47 43 42 40 39 40 41 40 37 35 33
34 31 34 35 34 29 27 26 26 25 30 23 23 21 26 29 31 31 38 44 45 45 43 42 42 45 47 48 49 48 49 47 45 43 43 40 39 41 40 38 37 33 33 33
33 34 34 32 34 32 25 28 30 26 22 28 27 24 26 28 31 31 31 42 45 45 44 42 42 44 46 47 48 49 48 45 43 40 41 44 42 40 40 39 32 34 33 34
35 29 24 27 27 31 27 25 24 27 32 26 23 24 25 25 25 27 29 39 44 45 44 42 42 43 46 47 49 49 44 40 41 41 42 42 40 40 36 32 33 34 33 33
38 32 28 25 23 26 26 26 26 26 27 26 26 26 25 24 25 25 26 29 40 44 43 42 42 44 47 48 49 47 41 41 40 40 42 40 40 36 33 34 34 34 34 33
34 28 28 25 25 28 26 27 26 25 27 26 27 25 25 24 24 25 30 31 29 34 40 41 43 47 48 48 45 41 40 40 39 38 35 32 33 33 34 34 34 34 33 33
35 31 30 31 32 29 27 26 26 25 24 22 24 23 25 25 25 24 24 24 28 29 36 42 46 46 45 44 39 39 39 38 39 33 33 32 33 34 34 33 32 32 33 32
36 34 31 29 27 26 23 26 25 25 25 25 23 25 28 28 28 28 29 31 30 32 36 39 42 42 42 39 37 37 37 34 34 33 32 31 33 32 31 30 30 31 31 31
37 36 32 28 26 16 27 24 19 20 22 23 23 28 29 29 32 32 33 32 34 36 37 40 40 38 37 36 36 33 32 33 33 32 27 29 31 30 30 31 31 30 31 31
41 37 31 25 25 27 25 23 24 23 24 26 25 26 29 30 35 36 35 34 34 38 40 38 36 33 30 29 30 31 30 28 25 25 26 29 30 30 31 31 30 30 31 31
36 38 30 29 24 17 29 25 27 26 24 31 31 33 35 31 33 36 38 38 38 38 34 31 28 30 30 29 28 28 28 28 26 27 30 32 33 32 31 30 30 31 31 29
30 30 27 25 24 30 34 29 32 20 26 34 34 35 37 38 39 39 39 32 30 31 30 31 30 29 28 29 27 26 27 28 30 32 33 32 32 30 29 29 30 30 30 29
31 31 27 31 31 26 31 29 27 36 36 37 36 38 38 38 40 40 34 29 30 30 29 30 29 28 26 26 27 28 27 29 31 30 30 29 29 28 27 30 30 30 29 28
32 37 34 34 33 38 37 38 40 40 39 39 40 41 41 40 39 35 28 31 31 31 31 32 31 29 28 26 27 28 27 27 29 29 28 28 29 28 28 29 28 28 27 26
35 36 35 31 34 37 41 42 41 41 41 40 38 38 40 40 37 30 32 32 31 31 29 29 28 28 29 30 30 30 31 30 28 27 27 28 28 29 29 29 29 28 26 25
36 34 33 32 40 40 40 41 42 40 39 35 36 35 35 34 34 32 31 30 29 29 30 32 32 32 31 32 32 30 25 27 26 27 28 28 29 29 29 30 30 29 28 27
36 35 31 33 40 39 37 39 39 37 36 36 35 34 34 34 33 31 29 29 31 33 34 34 33 33 28 23 23 24 25 25 26 27 27 28 28 28 29 29 29 30 30 30
Lifted_Index
-1 -1 -1 -0 0 1 1 1 1 0 0 -0 -0 -1 -1 -1 -1 -0 0 1 2 2 2 1 -0 -1 -2 -3 -3 -3 -3 -2 -1 0 0 0 1 1 2 4 5 6 6 7
-1 -1 -0 0 0 0 0 0 0 0 0 0 -0 -0 -1 -1 -1 -1 -0 1 1 1 1 0 -1 -2 -2 -3 -3 -3 -3 -2 -1 -0 0 1 2 3 3 5 6 6 7 7
-0 0 0 0 0 -0 -0 0 0 0 0 0 0 -0 -0 -1 -1 -1 -1 -1 -0 0 -0 -1 -2 -3 -3 -3 -3 -3 -2 -2 -1 -0 1 2 3 4 4 5 6 6 6 7
1 1 0 0 0 -0 -0 -0 -0 -0 0 0 0 -0 -0 -0 -0 -1 -1 -1 -1 -1 -1 -2 -3 -3 -4 -4 -3 -3 -2 -1 -1 -0 1 3 4 4 5 5 5 5 6 6
1 1 0 0 -0 -0 -0 -0 -0 -0 -0 -0 0 0 0 0 -0 -1 -1 -1 -1 -1 -1 -2 -3 -4 -4 -4 -3 -3 -2 -1 -1 0 2 3 4 5 5 5 5 5 6 6
0 0 0 -0 -0 -0 -0 -0 -0 -0 -0 -0 0 0 0 0 0 -0 -1 -1 -2 -2 -2 -2 -3 -3 -3 -3 -3 -2 -2 -1 -0 1 3 3 4 4 4 4 5 5 6 6
0 0 0 -0 -1 -1 -0 -0 -0 -0 -0 -0 -0 -0 -0 -0 0 0 -0 -1 -2 -2 -3 -3 -3 -3 -2 -2 -2 -2 -1 -0 1 2 3 3 3 3 4 4 5 5 6 6
0 0 -0 -1 -1 -1 -1 -0 -0 -0 -0 -0 -0 -0 -0 -0 -0 -0 -0 -1 -2 -3 -3 -3 -3 -2 -2 -2 -1 -1 0 1 2 2 3 2 2 3 3 4 5 6 6 7
-0 0 -0 -1 -1 -1 -1 -0 -0 -0 -0 -0 -0 -0 -0 -1 -1 -1 -1 -1 -2 -3 -3 -2 -2 -2 -2 -1 -0 1 2 2 2 2 2 2 2 2 3 5 5 6 7 7
-0 -0 0 -0 -1 -1 -0 -0 -0 -0 0 0 0 -0 -0 -0 -1 -1 -1 -2 -2 -2 -2 -1 -1 -1 -0 0 1 1 2 2 2 2 2 2 2 3 4 5 6 7 7 8
-1 -0 0 0 -0 -0 -0 -0 -0 0 0 0 0 0 -0 -0 0 -0 -1 -2 -2 -2 -1 -1 0 1 1 1 1 1 2 2 2 2 2 2 3 4 5 6 7 8 9 9
-1 -0 0 0 -0 -0 -0 -0 -0 0 0 1 1 1 1 0 1 1 0 -1 -2 -2 -1 -1 0 1 2 2 2 2 2 2 2 2 2 3 4 5 6 7 8 9 10 10
-1 -0 0 0 0 -0 -0 -0 -0 0 0 1 1 1 1 1 1 1 1 0 -1 -1 -1 -1 0 1 1 1 2 2 1 1 1 2 3 4 5 6 7 8 9 10 10 10
-0 0 1 1 1 0 0 0 -0 0 0 1 1 1 1 1 1 2 2 2 0 -1 -1 -1 -0 0 1 1 1 1 1 1 1 2 4 5 7 8 8 9 10 10 10 10
1 1 1 1 1 1 1 1 0 0 0 1 1 1 1 1 1 2 3 3 2 1 -0 -0 -0 -0 -0 -0 -0 0 0 1 2 3 4 6 8 9 9 10 10 10 10 10
1 1 1 1 1 1 1 1 1 1 1 1 1 1 1 1 2 2 3 3 3 2 1 0 -0 -0 -0 -0 -0 0 1 2 3 4 6 7 9 10 10 10 10 11 11 11
1 1 1 1 1 1 2 2 2 2 1 1 2 2 2 2 3 3 3 3 3 3 2 1 0 0 0 0 1 1 2 3 4 5 7 9 10 10 11 11 11 11 12 12
0 0 1 1 1 2 2 2 2 2 2 2 2 3 3 3 3 3 4 3 3 3 3 2 1 1 1 1 2 3 4 5 6 7 9 10 11 11 11 11 12 12 12 12
-0 -0 0 1 2 2 2 3 3 3 3 3 3 3 3 3 3 3 4 4 4 4 3 3 2 2 2 2 3 4 5 6 8 9 10 11 11 11 11 12 12 11 11 11
0 0 1 1 2 2 2 2 3 3 3 4 4 4 4 4 3 3 4 4 4 4 4 3 3 2 3 4 5 5 6 8 9 10 10 10 11 11 11 11 11 11 11 10
1 1 1 2 2 2 2 2 3 3 3 4 4 4 4 4 4 4 4 4 4 4 4 3 3 3 4 6 7 7 8 9 9 10 10 10 11 11 11 11 11 10 10 10
1 2 2 2 2 3 3 3 3 3 3 4 4 4 4 4 4 5 5 5 4 4 4 4 4 4 6 8 8 8 9 9 10 10 10 11 11 11 11 10 10 9 9 8
1 2 2 2 2 3 4 4 3 3 4 4 4 5 5 5 5 5 5 4 4 4 4 5 6 7 8 9 9 9 10 11 11 11 11 12 11 11 10 9 9 8 8 7
1 1 1 2 2 3 4 4 4 4 4 5 5 5 5 5 5 4 4 4 4 4 5 7 7 8 9 10 11 11 12 12 12 12 12 12 11 10 9 8 7 7 6 6
1 1 1 2 3 3 4 4 4 4 5 5 5 5 5 5 5 4 4 5 5 6 7 8 9 10 11 12 12 13 13 13 12 12 12 11 10 9 8 7 7 6 6 6
1 1 2 2 3 3 4 4 4 4 5 5 6 6 6 5 5 5 5 6 6 7 8 9 10 11 12 13 13 13 13 13 12 12 11 10 9 8 7 7 6 6 6 6